CDT,Max TemperatureF,Mean TemperatureF,Min TemperatureF,Max Dew PointF,MeanDew PointF,Min DewpointF,Max Humidity, Mean Humidity, Min Humidity, Max Sea Level PressureIn, Mean Sea Level PressureIn, Min Sea Level PressureIn, Max VisibilityMiles, Mean VisibilityMiles, Min VisibilityMiles, Max Wind SpeedMPH, Mean Wind SpeedMPH, Max Gust SpeedMPH,PrecipitationIn, CloudCover, Events, WindDirDegrees
2013-3-1,34,28,21,26,23,17,85,72,59,30.40,30.31,30.23,10,9,6,21,11,25,0.00,7,,345
2013-3-2,36,27,18,25,20,15,92,74,56,30.42,30.33,30.18,10,9,6,9,5,12,0.00,1,,230
2013-3-3,55,41,27,38,31,23,85,68,50,30.17,29.86,29.62,10,10,8,17,10,20,0.00,5,,157
2013-3-4,50,44,38,38,35,32,85,71,56,30.09,29.79,29.57,10,10,6,28,14,37,0.04,6,Rain,5
2013-3-5,44,36,27,25,19,16,92,66,39,30.43,30.33,30.12,10,10,10,31,18,41,0.00,1,,327
2013-3-6,47,34,21,23,20,17,81,59,37,30.47,30.35,30.20,10,10,10,17,7,21,0.00,3,,119
2013-3-7,67,49,31,30,26,22,69,46,22,30.19,30.08,29.99,10,10,8,28,17,35,0.00,1,,150
2013-3-8,62,54,45,46,40,30,77,62,46,30.08,29.99,29.88,10,10,9,25,18,35,T,7,Rain,148
2013-3-9,59,51,42,59,52,39,100,83,66,29.88,29.67,29.55,10,7,1,30,14,36,0.77,7,Rain-Thunderstorm,168
2013-3-10,43,37,30,40,28,19,96,80,63,30.07,29.88,29.64,10,9,3,36,22,46,T,8,,337
2013-3-11,49,36,23,27,18,12,75,49,23,30.07,30.03,29.99,10,10,10,20,10,25,T,4,,318
2013-3-12,55,45,34,36,27,20,79,54,29,30.39,30.24,30.07,10,10,10,23,9,31,T,4,Rain,338
2013-3-13,56,40,23,31,24,19,81,56,31,30.48,30.38,30.28,10,10,10,21,9,26,0.00,2,,145
2013-3-14,79,56,33,42,35,27,82,51,19,30.26,30.16,30.07,10,10,10,18,8,22,0.00,3,,195
2013-3-15,80,61,41,50,45,39,89,61,32,30.06,29.86,29.70,10,10,10,18,8,23,0.00,4,,186
2013-3-16,55,46,37,47,37,29,83,67,50,29.99,29.88,29.70,10,9,7,29,19,36,0.00,6,,35
2013-3-17,43,39,35,36,32,28,92,81,70,30.00,29.88,29.73,10,10,6,24,11,31,0.02,8,Rain,67
2013-3-18,59,49,38,38,29,16,100,60,19,30.05,29.93,29.79,10,9,6,22,10,26,T,4,,343
2013-3-19,54,43,32,32,22,16,82,54,26,30.30,30.17,30.05,10,10,10,21,9,24,0.00,4,,94
2013-3-20,49,40,30,31,20,12,92,58,24,30.45,30.29,30.05,10,10,10,20,9,25,0.00,3,,52
2013-3-21,50,43,35,30,22,16,82,56,29,30.02,29.85,29.74,10,10,9,29,19,31,0.00,7,,104
2013-3-22,51,42,32,33,31,30,92,71,50,29.99,29.92,29.87,10,8,4,17,9,21,0.00,6,,34
2013-3-23,37,34,31,34,33,30,100,88,76,29.97,29.91,29.83,10,3,0,28,14,35,0.40,8,Fog-Rain-Snow,41
2013-3-24,35,30,25,30,24,18,100,78,56,30.20,30.06,29.91,10,5,0,35,21,45,0.39,4,Fog-Snow,337
2013-3-25,35,29,23,21,18,16,75,61,47,30.43,30.33,30.22,10,10,10,29,16,35,T,4,,323
2013-3-26,48,32,16,26,20,14,84,63,42,30.47,30.37,30.23,10,10,10,16,6,20,0.00,1,,186
2013-3-27,62,50,37,34,28,22,59,46,33,30.22,30.14,30.07,10,10,10,28,12,32,0.00,4,,149
2013-3-28,69,53,37,47,39,31,82,61,40,30.17,30.12,30.06,10,10,9,13,6,24,0.00,5,,81
2013-3-29,74,60,46,54,50,45,93,71,49,30.14,30.08,30.01,10,10,7,17,9,25,0.00,4,Thunderstorm,105
2013-3-30,76,64,51,58,54,51,100,75,49,30.02,29.95,29.85,10,8,2,21,9,37,0.47,6,Rain-Thunderstorm,182
2013-3-31,67,56,44,52,42,35,100,66,32,30.05,30.00,29.95,10,10,7,36,9,43,0.02,2,Rain,339